Nausori, Fiji

10:20 AM +12 on September 25, 2017 (GMT +1200)
Nausori International

Weather History for NFNA - January, 2002

Change the Weather History Date:

Tuesday, January 1, 2002

  Actual Average Record
Temperature  
Mean Temperature 80 °F -  
Max Temperature 87 °F 87 °F - ()
Min Temperature 73 °F 75 °F - ()
Cooling Degree Days 15    
Growing Degree Days 30 (Base 50)    
Moisture  
Dew Point 75 °F    
Average Humidity 85    
Maximum Humidity 100    
Minimum Humidity 66    
Precipitation  
Precipitation 0.00 in 0.41 in - ()
Sea Level Pressure  
Sea Level Pressure 29.72 in    
Wind  
Wind Speed 4 mph ()    
Max Wind Speed 9 mph    
Max Gust Speed -    
Visibility 18.6 miles    
Events Rain , Thunderstorm    
T = Trace of Precipitation, MM = Missing Value Source: Averaged Metar Reports

Daily Weather History Graph

Daily Weather History Graph

Search for Another Location

Airport or City:

Trip Planner

Search our weather history database for the weather conditions in past years. The results will help you decide how hot, cold, wet, or windy it might be!

Date:

Astronomy

Jan. 01, 2002 Rise Set
Actual Time 5:33 AM +12 6:44 PM +12
Civil Twilight 5:09 AM +12 7:08 PM +12
Nautical Twilight 4:40 AM +12 7:37 PM +12
Astronomical Twilight 4:11 AM +12 8:06 PM +12
Moon 8:31 PM +12 (1/1) 6:54 AM +12 (1/1)
Length of Visible Light 13h 59m
Length of Day
13h 11m
Full, 97% of the Moon is Illuminated
Jan 1
Full
Jan 6
Last Quarter
Jan 14
New
Jan 22
First Quarter
Jan 29
Full

Hourly Weather History & Observations

Time (+12) Temp. Heat Index Dew Point Humidity Pressure Visibility Wind Dir Wind Speed Gust Speed Precip Events Conditions
12:00 AM 80.6 °F 86.2 °F 75.2 °F 84% 29.71 in 24.9 mi South 4.6 mph - N/A   Partly Cloudy
1:00 AM 78.8 °F - 77.0 °F 94% 29.68 in 24.9 mi South 4.6 mph - N/A   Partly Cloudy
2:00 AM 78.8 °F - 77.0 °F 94% 29.68 in 24.9 mi SW 3.5 mph - N/A   Partly Cloudy
3:00 AM 77.0 °F - 75.2 °F 94% 29.65 in 24.9 mi SW 3.5 mph - N/A   Partly Cloudy
4:00 AM 77.0 °F - 75.2 °F 94% 29.68 in 24.9 mi Calm Calm - N/A   Scattered Clouds
5:00 AM 77.0 °F - 75.2 °F 94% 29.68 in 24.9 mi WNW 2.3 mph - N/A   Partly Cloudy
6:00 AM 75.2 °F - 75.2 °F 100% 29.71 in 31.1 mi WNW 3.5 mph - N/A   Scattered Clouds
7:00 AM 78.8 °F - 77.0 °F 94% 29.74 in 31.1 mi WNW 1.2 mph - N/A   Scattered Clouds
8:00 AM 84.2 °F 96.1 °F 78.8 °F 84% 29.74 in 31.1 mi South 6.9 mph - N/A   Scattered Clouds
9:00 AM 84.2 °F 94.1 °F 77.0 °F 79% 29.74 in 31.1 mi South 5.8 mph - N/A   Mostly Cloudy
10:00 AM 86.0 °F 96.9 °F 77.0 °F 74% 29.71 in 31.1 mi South 5.8 mph - N/A   Mostly Cloudy
11:00 AM 87.8 °F 102.5 °F 78.8 °F 75% 29.71 in 31.1 mi SSW 9.2 mph - N/A   Scattered Clouds
12:00 PM 86.0 °F 96.9 °F 77.0 °F 74% 29.71 in 31.1 mi South 8.1 mph - N/A   Scattered Clouds
1:00 PM 87.8 °F 99.7 °F 77.0 °F 70% 29.71 in 31.1 mi SE 8.1 mph - N/A   Scattered Clouds
2:00 PM 87.8 °F 97.6 °F 75.2 °F 66% 29.68 in 31.1 mi SSE 6.9 mph - N/A   Scattered Clouds
3:00 PM 87.8 °F 97.6 °F 75.2 °F 66% 29.68 in 31.1 mi SSE 6.9 mph - N/A   Scattered Clouds
4:00 PM 87.8 °F 97.6 °F 75.2 °F 66% 29.68 in 31.1 mi SSE 9.2 mph - N/A Thunderstorm Thunderstorm
5:00 PM 84.2 °F 92.3 °F 75.2 °F 74% - 18.6 mi Calm Calm - N/A Rain , Thunderstorm Light Thunderstorms and Rain
6:00 PM 77.0 °F - 73.4 °F 89% - 24.9 mi West 3.5 mph - N/A Rain Light Rain Showers
7:00 PM 73.4 °F - 71.6 °F 94% - 24.9 mi NW 9.2 mph - N/A   Mostly Cloudy
8:00 PM 73.4 °F - 71.6 °F 94% 29.77 in 31.1 mi NW 3.5 mph - N/A   Scattered Clouds
9:00 PM 73.4 °F - 71.6 °F 94% 29.80 in 31.1 mi NNW 2.3 mph - N/A   Partly Cloudy
10:00 PM 73.4 °F - 71.6 °F 94% 29.80 in 31.1 mi NNW 6.9 mph - N/A   Partly Cloudy
11:00 PM 73.4 °F - 71.6 °F 94% 29.80 in 31.1 mi WNW 4.6 mph - N/A   Partly Cloudy